| time (UTC) | temp C | wind direction | speed KPH | gust KPH | rain 1hr cm | rain 24hr cm | rain mn cm | humidity % | barometer mb |
| 20260504044557 | 25 | 216 | 6.4 | 11.3 | 0.00 | 0.64 | 0.64 | 100 | 1015.2 |
| 20260504043058 | 25 | 218 | 3.2 | 11.3 | 0.00 | 0.64 | 0.64 | 100 | 1015.3 |
| 20260504041600 | 25 | 225 | 4.8 | 8.0 | 0.00 | 0.64 | 0.64 | 100 | 1015.2 |
| 20260504040052 | 25 | 236 | 3.2 | 12.9 | 0.00 | 0.64 | 0.64 | 100 | 1015.1 |
| 20260504034559 | 25 | 251 | 3.2 | 12.9 | 0.00 | 0.64 | 0.64 | 100 | 1015.1 |
| 20260504033059 | 25 | 229 | 6.4 | 9.7 | 0.00 | 0.64 | 0.64 | 100 | 1015.0 |
| 20260504031605 | 25 | 209 | 4.8 | 11.3 | 0.00 | 0.64 | 0.64 | 100 | 1015.0 |
| 20260504030112 | 25 | 192 | 3.2 | 9.7 | 0.00 | 0.64 | 0.64 | 100 | 1014.7 |
| 20260504024552 | 25 | 99 | 4.8 | 11.3 | 0.00 | 0.64 | 0.64 | 100 | 1014.5 |
| 20260504023055 | 25 | 282 | 6.4 | 14.5 | 0.00 | 0.64 | 0.64 | 100 | 1014.6 |
| 20260504021600 | 25 | 202 | 9.7 | 16.1 | 0.00 | 0.64 | 0.64 | 100 | 1014.5 |
| 20260504020052 | 25 | 203 | 6.4 | 14.5 | 0.00 | 0.64 | 0.64 | 100 | 1014.4 |
| 20260504014549 | 25 | 229 | 4.8 | 12.9 | 0.00 | 0.64 | 0.64 | 100 | 1014.1 |
| 20260504013049 | 25 | 220 | 6.4 | 11.3 | 0.00 | 0.64 | 0.64 | 100 | 1014.0 |
| 20260504011545 | 25 | 208 | 8.0 | 11.3 | 0.00 | 0.64 | 0.64 | 100 | 1013.8 |
| 20260504010051 | 25 | 198 | 4.8 | 8.0 | 0.00 | 0.64 | 0.64 | 100 | 1013.7 |
| 20260504004549 | 25 | 215 | 6.4 | 12.9 | 0.00 | 0.64 | 0.64 | 100 | 1013.5 |
| 20260504003050 | 25 | 198 | 6.4 | 12.9 | 0.00 | 0.64 | 0.64 | 100 | 1013.3 |
| 20260504001551 | 25 | 202 | 6.4 | 11.3 | 0.00 | 0.64 | 0.64 | 100 | 1013.2 |
| 20260504000129 | 25 | 200 | 8.0 | 12.9 | 0.00 | 0.64 | 0.64 | 100 | 1012.7 |
| 20260503234553 | 26 | 211 | 6.4 | 14.5 | 0.00 | 0.64 | 0.64 | 100 | 1012.8 |
| 20260503233048 | 26 | 202 | 9.7 | 16.1 | 0.00 | 0.64 | 0.64 | 100 | 1012.7 |
| 20260503231548 | 26 | 205 | 3.2 | 9.7 | 0.00 | 0.64 | 0.64 | 100 | 1012.3 |
| 20260503230050 | 26 | 259 | 8.0 | 14.5 | 0.00 | 0.64 | 0.64 | 100 | 1012.4 |
| 20260503224551 | 26 | 209 | 8.0 | 12.9 | 0.00 | 0.64 | 0.64 | 100 | 1012.4 |
| 20260503223046 | 25 | 106 | 1.6 | 6.4 | 0.00 | 0.64 | 0.64 | 100 | 1012.2 |
| 20260503221549 | 25 | 220 | 4.8 | 8.0 | 0.15 | 0.64 | 0.64 | 100 | 1012.3 |
| 20260503220054 | 25 | 261 | 4.8 | 8.0 | 0.46 | 0.64 | 0.64 | 100 | 1012.2 |
| 20260503214547 | 25 | 219 | 4.8 | 8.0 | 0.61 | 0.64 | 0.64 | 100 | 1012.6 |
| 20260503213048 | 25 | 196 | 9.7 | 14.5 | 0.61 | 0.61 | 0.61 | 98 | 1012.7 |
| 20260503211546 | 25 | 103 | 1.6 | 16.1 | 0.46 | 0.46 | 0.46 | 98 | 1012.9 |
| 20260503210050 | 27 | 15 | 9.7 | 17.7 | 0.13 | 0.13 | 0.13 | 97 | 1012.9 |
| 20260503204548 | 28 | 317 | 1.6 | 8.0 | 0.00 | 0.00 | 0.00 | 94 | 1012.8 |
| 20260503203052 | 28 | 293 | 3.2 | 16.1 | 0.00 | 0.00 | 0.00 | 91 | 1013.0 |
| 20260503201547 | 29 | 272 | 6.4 | 16.1 | 0.00 | 0.00 | 0.00 | 89 | 1013.1 |
| 20260503200053 | 29 | 355 | 9.7 | 17.7 | 0.00 | 0.00 | 0.00 | 90 | 1013.0 |
| 20260503194553 | 28 | 203 | 3.2 | 17.7 | 0.00 | 0.00 | 0.00 | 90 | 1013.5 |
| 20260503193050 | 29 | 266 | 4.8 | 22.5 | 0.00 | 0.00 | 0.00 | 89 | 1013.7 |
| 20260503191549 | 30 | 219 | 3.2 | 14.5 | 0.00 | 0.00 | 0.00 | 89 | 1013.9 |
| 20260503190047 | 29 | 72 | 4.8 | 16.1 | 0.00 | 0.00 | 0.00 | 90 | 1014.1 |
| 20260503184605 | 30 | 241 | 4.8 | 19.3 | 0.00 | 0.00 | 0.00 | 87 | 1014.2 |
| 20260503183100 | 29 | 294 | 6.4 | 14.5 | 0.00 | 0.00 | 0.00 | 90 | 1014.5 |
| 20260503181554 | 28 | 87 | 3.2 | 14.5 | 0.00 | 0.00 | 0.00 | 92 | 1014.8 |
| 20260503180056 | 29 | 233 | 6.4 | 19.3 | 0.00 | 0.00 | 0.00 | 88 | 1014.9 |
| 20260503174552 | 30 | 169 | 3.2 | 12.9 | 0.00 | 0.00 | 0.00 | 88 | 1015.0 |
| 20260503173050 | 29 | 271 | 4.8 | 14.5 | 0.00 | 0.00 | 0.00 | 88 | 1015.2 |
| 20260503171609 | 30 | 221 | 4.8 | 12.9 | 0.00 | 0.00 | 0.00 | 86 | 1015.3 |
| 20260503081551 | 26 | 203 | 0.0 | 1.6 | 0.00 | 0.00 | 0.00 | 99 | 1012.1 |